Regional Weather Roundup
Issued by NWS

Home | Current Version | Previous Version | Graphics & Text | Print | Product List | Glossary On
Versions: 1 2 3 4 5 6 7 8 9 10 11 12 13 14 15 16 17 18 19 20 21 22 23 24 25 26 27 28 29 30 31 32 33 34 35 36 37 38 39 40 41 42 43 44 45 46 47 48 49 50
000
ASUS45 KBOU 201207
RWRCO

WEATHER ROUNDUP FOR COLORADO
NATIONAL WEATHER SERVICE DENVER/BOULDER CO
600 AM MDT FRI OCT 20 2017

NOTE: "FAIR" INDICATES FEW OR NO CLOUDS BELOW 12000 FEET WITH NO
SIGNIFICANT WEATHER AND/OR OBSTRUCTIONS TO VISIBILITY.

COZ001>005-013-030-031-201300-
...NORTHWEST COLORADO...

CITY           SKY/WX    TMP DP  RH WIND       PRES   REMARKS
CRAIG          MOCLDY    36  32  85 CALM      29.86F
HAYDEN         CLOUDY    45  31  58 E9        29.89F
MEEKER         FAIR      42  32  67 NE7       29.86F
RABBIT EARS PA PTSUNNY   37  30  75 S8G17     30.06F
STEAMBOAT SPGS FAIR      38  29  72 CALM      29.90S
WALDEN         NOT AVBL
$$

COZ006>008-011-201300-
...WEST CENTRAL VALLEYS...

CITY           SKY/WX    TMP DP  RH WIND       PRES   REMARKS
GRAND JUNCTION CLOUDY    60  36  40 E13       29.80F
MONTROSE       MOCLDY    54  33  45 SE9       29.91F
EAGLE          CLOUDY    36  29  75 CALM      29.97F
RIFLE          CLOUDY    48  35  60 CALM      29.86F
DELTA          FAIR      52  31  43 NE8       29.88S
NUCLA          FAIR      55  32  41 S3        29.94F
$$

COZ017>023-064>068-201300-
...SOUTHWEST COLORADO...

CITY           SKY/WX    TMP DP  RH WIND       PRES   REMARKS
DURANGO        CLOUDY    44  35  70 CALM      30.02F
CORTEZ         FAIR      42  35  76 NE5       29.95F
PAGOSA SPRINGS FAIR      40  38  91 CALM      30.07F
TELLURIDE      FAIR      46  32  57 E5        30.08F
WOLF CREEK PAS FOG       32  32 100 SW8       30.26S VSB<1/4 WCI  25
$$

COZ009-010-012-014-032>034-037-058>063-201300-
...CENTRAL COLORADO...

CITY           SKY/WX    TMP DP  RH WIND       PRES   REMARKS
ASPEN          MOCLDY    39  29  67 VRB3      29.97F
BUENA VISTA    FAIR      32  24  71 CALM      30.01S
COPPER MTN     FAIR      37  27  65 W13G20    30.15F
BERTHOUD PASS  FAIR      32  21  64 W30G38    30.15F WCI  18
COTTONWOOD PAS FAIR      46  28  49 CALM      30.07S
GUNNISON       FAIR      30  24  78 CALM      30.05F
KREMMLING      FAIR      32  27  80 CALM      29.99F
LEADVILLE      FAIR      28  21  75 NE5       30.06F WCI  23
MONARCH PASS   MOCLDY    32  27  80 SW21      30.27F WCI  20
SALIDA         FAIR      43  24  47 N3        30.06F
SUNLIGHT       CLOUDY    36  28  75 SW13G21   30.11F
WILKERSON PASS FAIR      36  21  55 SW17G29   30.13F
$$

COZ069>075-201300-
...SAN LUIS VALLEY/SANGRE DE CRISTO MOUNTAINS...

CITY           SKY/WX    TMP DP  RH WIND       PRES   REMARKS
ALAMOSA        CLOUDY    33  29  85 NE6       30.03S WCI  28
DEL NORTE      FAIR      48  34  60 W13       30.04F
LA VETA PASS   FAIR      39  32  75 S22G35    30.19S
SAGUACHE       FAIR      32  23  69 NW5       30.04F WCI  27
$$

COZ035-036-038>040-201300-
...NORTHERN COLORADO FRONT RANGE...

CITY           SKY/WX    TMP DP  RH WIND       PRES   REMARKS
DENVER INTL AP FAIR      51  28  41 SW14      29.78F
DMNS CITY PARK   N/A     51  26  38 SE10      29.78F
AURORA         PTCLDY    48  28  46 S8        29.81S
FRONT RANGE AP FAIR      52  28  40 SW12      29.79F
ERIE MUNI ARPT FAIR      39  32  77 CALM      29.82S
BOULDER MUN AP FAIR      48  32  53 CALM      29.76F
CENTENNIAL     FAIR      52  25  35 S6        29.82S
BROOMFIELD     FAIR      55  28  35 CALM      29.79F
FORT COLLINS   FAIR      41  36  82 CALM      29.77S
LONGMONT       FAIR      41  33  72 NW6       29.77F
$$

COZ041-046-047-076>085-087-088-201300-
...PIKES PEAK/PALMER DIVIDE AND SOUTHERN FOOTHILLS...

CITY           SKY/WX    TMP DP  RH WIND       PRES   REMARKS
COLO. SPRINGS  FAIR      46  30  53 E6        29.84F
A. F. ACADEMY  FAIR      58  24  26 W6        29.85S
SCHRIEVER AFB  FAIR      44  30  59 CALM      29.84F
CHEYENNE MTN   FAIR      61  25  25 N12       29.82F
ELLICOTT       FAIR     N/A N/A N/A CALM      29.83S
FALCON         FAIR      51  23  33 NW9       29.88S
FORT CARSON    FAIR      43  31  61 NW5       29.81F
LIMON          FOG       31  31 100 N3        29.80F VSB 1/4
MONUMENT HILL  FAIR      45  23  42 W10       29.90S
CANON CITY     FAIR      54  28  37 W15       29.83S
WALSENBURG     NOT AVBL
TRINIDAD       FAIR      46  36  68 NW5       29.87F
$$

COZ042>045-048>051-090-091-201300-
...NORTHEAST COLORADO...

CITY           SKY/WX    TMP DP  RH WIND       PRES   REMARKS
GREELEY ARPT   FAIR      35  31  85 N5        29.77S WCI  31
AKRON          FAIR      47  39  74 S8        29.74F
BURLINGTON     FAIR      51  49  92 S12       29.78F
WRAY           NOT AVBL
YUMA           FAIR      41  39  93 CALM      29.75F
STERLING       FAIR      37  36  93 S7        29.72F
HOLYOKE        FAIR      41  37  87 SE8       29.76F
FORT MORGAN    FAIR      38  32  78 W13       29.74F
$$

COZ086-089-092>099-201300-
...SOUTHEAST COLORADO...

CITY           SKY/WX    TMP DP  RH WIND       PRES   REMARKS
PUEBLO         FAIR      37  32  82 CALM      29.79F
LA JUNTA       FAIR      47  36  65 W9        29.79R
LAMAR          FAIR      57  48  72 SW15      29.74F
SPRINGFIELD    NOT AVBL
$$



USA.gov is the U.S. government's official web portal to all federal, state and local government web resources and services.